TimeMDT,TemperatureF,Dew PointF,Humidity,Sea Level PressureIn,VisibilityMPH,Wind Direction,Wind SpeedMPH,Gust SpeedMPH,PrecipitationIn,Events,Conditions,WindDirDegrees,DateUTC
12:02 AM,46.4,44.6,93,29.71,6.0,NNW,23.0,28.8,0.01,Rain,Light Rain,340,2014-05-07 06:02:00
12:10 AM,46.4,44.6,93,29.72,7.0,North,26.5,31.1,0.01,Rain,Light Rain,350,2014-05-07 06:10:00
12:22 AM,44.6,42.8,93,29.72,10.0,North,20.7,29.9,0.01,Rain,Light Rain,350,2014-05-07 06:22:00
12:32 AM,44.6,42.8,93,29.74,10.0,North,23.0,28.8,0.02,,Overcast,350,2014-05-07 06:32:00
12:37 AM,44.6,42.8,93,29.74,10.0,North,21.9,29.9,0.02,,Overcast,350,2014-05-07 06:37:00
12:45 AM,44.6,42.8,93,29.74,10.0,NNW,19.6,28.8,0.02,Rain,Light Rain,340,2014-05-07 06:45:00
12:53 AM,43.0,41.0,93,29.72,10.0,NNW,19.6,-,0.02,Rain,Light Rain,340,2014-05-07 06:53:00
1:46 AM,41.0,39.2,93,29.77,6.0,NNW,18.4,29.9,0.01,Rain,Rain,330,2014-05-07 07:46:00
1:53 AM,41.0,39.0,93,29.74,6.0,NNW,20.7,27.6,0.02,Rain,Light Rain,330,2014-05-07 07:53:00
2:53 AM,39.2,37.4,93,29.78,10.0,NNW,21.9,-,N/A,Rain,Light Rain,340,2014-05-07 08:53:00
3:31 AM,37.4,35.6,93,29.79,10.0,NNW,19.6,25.3,0.00,,Overcast,340,2014-05-07 09:31:00
3:51 AM,37.4,35.6,93,29.80,10.0,NNW,18.4,25.3,0.00,,Overcast,340,2014-05-07 09:51:00
3:53 AM,37.9,35.1,89,29.76,10.0,NNW,19.6,25.3,0.00,,Overcast,340,2014-05-07 09:53:00
4:45 AM,35.6,33.8,93,29.80,5.0,NNW,20.7,24.2,0.00,,Overcast,340,2014-05-07 10:45:00
4:53 AM,36.0,34.0,93,29.78,5.0,NNW,19.6,25.3,0.00,,Overcast,330,2014-05-07 10:53:00
5:22 AM,33.8,32.0,93,29.82,2.5,NNW,11.5,-,0.03,Snow,Light Snow,330,2014-05-07 11:22:00
5:32 AM,33.8,32.0,93,29.82,3.0,NNW,11.5,-,0.04,Snow,Light Snow,330,2014-05-07 11:32:00
5:53 AM,35.6,33.8,93,29.83,3.0,NW,16.1,-,N/A,,Overcast,320,2014-05-07 11:53:00
6:00 AM,35.6,33.8,93,29.82,2.5,NNW,17.3,-,N/A,,Overcast,330,2014-05-07 12:00:00
6:11 AM,33.8,33.8,100,29.83,1.0,NNW,13.8,-,0.00,Snow,Light Snow,340,2014-05-07 12:11:00
6:18 AM,33.8,33.8,100,29.83,1.0,NNW,15.0,-,0.01,Snow,Light Snow,330,2014-05-07 12:18:00
6:26 AM,33.8,32.0,93,29.83,0.8,NNW,17.3,-,0.02,Snow,Light Snow,330,2014-05-07 12:26:00
6:35 AM,33.8,32.0,93,29.84,1.0,NNW,12.7,-,0.02,Snow,Light Snow,330,2014-05-07 12:35:00
6:44 AM,33.8,32.0,93,29.84,0.8,NNW,13.8,-,0.03,Snow,Light Snow,330,2014-05-07 12:44:00
6:53 AM,33.1,32.0,96,29.85,0.8,NNW,12.7,-,0.03,Snow,Light Snow,340,2014-05-07 12:53:00
7:16 AM,33.8,32.0,93,29.84,1.2,NNW,17.3,-,0.01,Snow,Light Snow,340,2014-05-07 13:16:00
7:29 AM,33.8,32.0,93,29.84,2.0,NNW,19.6,-,0.01,,Overcast,340,2014-05-07 13:29:00
7:43 AM,33.8,32.0,93,29.85,2.5,NNW,17.3,-,N/A,,Overcast,340,2014-05-07 13:43:00
7:53 AM,33.1,32.0,96,29.86,2.0,NNW,17.3,-,0.01,,Overcast,330,2014-05-07 13:53:00
8:03 AM,33.8,32.0,93,29.85,1.8,NNW,17.3,-,N/A,,Overcast,340,2014-05-07 14:03:00
8:11 AM,33.8,32.0,93,29.85,1.2,NNW,16.1,-,N/A,,Overcast,340,2014-05-07 14:11:00
8:22 AM,33.8,30.2,87,29.86,0.5,NNW,15.0,-,0.00,Fog-Snow,Light Snow,330,2014-05-07 14:22:00
8:34 AM,33.8,30.2,87,29.86,1.0,NNW,16.1,-,0.00,Snow,Light Snow,330,2014-05-07 14:34:00
8:43 AM,33.8,30.2,87,29.87,1.0,NNW,16.1,-,N/A,,Overcast,340,2014-05-07 14:43:00
8:53 AM,33.1,30.9,92,29.89,1.0,NNW,13.8,23.0,0.00,,Overcast,340,2014-05-07 14:53:00
9:02 AM,33.8,32.0,93,29.87,0.8,NNW,15.0,-,N/A,,Overcast,340,2014-05-07 15:02:00
9:04 AM,33.8,32.0,93,29.87,1.0,NNW,16.1,-,N/A,,Overcast,340,2014-05-07 15:04:00
9:08 AM,33.8,32.0,93,29.87,0.8,NNW,16.1,-,N/A,,Overcast,340,2014-05-07 15:08:00
9:37 AM,33.8,32.0,93,29.88,0.5,NNW,15.0,-,N/A,Fog-Snow,Light Snow,330,2014-05-07 15:37:00
9:53 AM,33.1,30.9,92,29.89,0.5,North,16.1,-,0.00,Fog-Snow,Light Snow,350,2014-05-07 15:53:00
10:04 AM,33.8,32.0,93,29.87,0.8,NNW,17.3,-,0.00,,Overcast,340,2014-05-07 16:04:00
10:11 AM,33.8,32.0,93,29.88,0.8,NNW,16.1,-,0.00,,Overcast,340,2014-05-07 16:11:00
10:18 AM,33.8,32.0,93,29.88,1.2,NNW,15.0,-,0.00,,Overcast,340,2014-05-07 16:18:00
10:53 AM,33.8,32.0,93,29.88,1.8,North,17.3,-,N/A,,Overcast,350,2014-05-07 16:53:00
11:13 AM,33.8,32.0,93,29.88,2.0,North,16.1,-,N/A,,Overcast,350,2014-05-07 17:13:00
11:24 AM,33.8,32.0,93,29.89,1.8,North,13.8,-,N/A,,Overcast,350,2014-05-07 17:24:00
11:33 AM,33.8,32.0,93,29.89,2.0,North,17.3,-,N/A,,Overcast,360,2014-05-07 17:33:00
11:53 AM,33.8,33.8,100,29.88,1.5,NNW,17.3,-,N/A,,Overcast,340,2014-05-07 17:53:00
12:45 PM,35.6,33.8,93,29.89,2.5,NNW,13.8,-,0.00,,Overcast,340,2014-05-07 18:45:00
12:53 PM,34.0,33.1,96,29.92,2.0,North,15.0,-,0.00,,Overcast,350,2014-05-07 18:53:00
1:09 PM,35.6,33.8,93,29.89,1.5,North,17.3,-,0.00,Snow,Light Snow,350,2014-05-07 19:09:00
1:14 PM,35.6,33.8,93,29.89,2.5,North,16.1,-,0.00,,Overcast,350,2014-05-07 19:14:00
1:19 PM,35.6,33.8,93,29.89,3.0,North,17.3,-,0.00,Snow,Light Snow,360,2014-05-07 19:19:00
1:30 PM,35.6,33.8,93,29.88,3.0,North,16.1,-,0.00,,Overcast,350,2014-05-07 19:30:00
1:40 PM,35.6,33.8,93,29.88,2.5,North,16.1,-,0.00,,Overcast,350,2014-05-07 19:40:00
1:43 PM,35.6,33.8,93,29.88,3.0,North,17.3,-,0.00,,Overcast,350,2014-05-07 19:43:00
1:53 PM,35.1,33.1,92,29.91,2.5,North,16.1,25.3,0.00,,Overcast,350,2014-05-07 19:53:00
2:04 PM,35.6,33.8,93,29.88,4.0,North,18.4,24.2,N/A,,Overcast,350,2014-05-07 20:04:00
2:47 PM,35.6,33.8,93,29.89,2.5,North,18.4,-,N/A,,Overcast,360,2014-05-07 20:47:00
2:53 PM,35.1,33.1,92,29.94,3.0,North,15.0,-,N/A,,Overcast,360,2014-05-07 20:53:00
3:08 PM,35.6,33.8,93,29.89,1.8,North,18.4,-,0.00,Snow,Light Snow,350,2014-05-07 21:08:00
3:16 PM,35.6,33.8,93,29.89,1.2,North,17.3,-,0.00,Snow,Light Snow,10,2014-05-07 21:16:00
3:26 PM,35.6,33.8,93,29.89,3.0,North,13.8,-,0.00,,Overcast,360,2014-05-07 21:26:00
3:39 PM,35.6,33.8,93,29.90,4.0,North,15.0,-,0.00,,Overcast,360,2014-05-07 21:39:00
3:49 PM,35.6,33.8,93,29.90,8.0,North,16.1,-,0.00,,Overcast,10,2014-05-07 21:49:00
3:53 PM,36.0,33.1,89,29.94,10.0,North,13.8,-,0.00,,Overcast,10,2014-05-07 21:53:00
4:02 PM,35.6,33.8,93,29.90,10.0,NNE,11.5,-,N/A,,Overcast,20,2014-05-07 22:02:00
4:48 PM,35.6,33.8,93,29.87,1.8,North,17.3,24.2,0.00,,Overcast,360,2014-05-07 22:48:00
4:53 PM,35.1,34.0,96,29.92,2.5,North,16.1,-,0.00,,Overcast,10,2014-05-07 22:53:00
4:56 PM,35.6,33.8,93,29.88,4.0,North,18.4,26.5,N/A,,Overcast,10,2014-05-07 22:56:00
5:05 PM,35.6,33.8,93,29.88,5.0,NNE,17.3,26.5,N/A,,Overcast,20,2014-05-07 23:05:00
5:53 PM,34.0,32.0,92,29.95,10.0,NNE,20.7,-,N/A,,Overcast,20,2014-05-07 23:53:00
6:53 PM,33.1,30.9,92,29.97,4.0,North,15.0,-,N/A,,Overcast,10,2014-05-08 00:53:00
7:06 PM,33.8,30.2,87,29.91,2.0,North,15.0,-,N/A,,Overcast,10,2014-05-08 01:06:00
7:14 PM,33.8,30.2,87,29.91,1.5,North,16.1,-,N/A,,Overcast,10,2014-05-08 01:14:00
7:35 PM,33.8,32.0,93,29.92,1.5,North,13.8,-,N/A,,Overcast,10,2014-05-08 01:35:00
7:53 PM,32.0,30.9,96,29.98,2.0,North,16.1,-,N/A,,Overcast,10,2014-05-08 01:53:00
8:18 PM,32.0,30.2,93,29.92,5.0,North,13.8,-,N/A,,Overcast,10,2014-05-08 02:18:00
8:49 PM,32.0,30.2,93,29.93,7.0,North,12.7,-,N/A,,Overcast,10,2014-05-08 02:49:00
8:53 PM,32.0,30.9,96,30.00,7.0,North,11.5,-,N/A,,Overcast,10,2014-05-08 02:53:00
9:41 PM,32.0,30.2,93,29.95,10.0,North,12.7,-,N/A,,Overcast,10,2014-05-08 03:41:00
9:53 PM,32.0,30.9,96,30.00,10.0,North,12.7,-,N/A,,Overcast,10,2014-05-08 03:53:00
10:53 PM,32.0,30.9,96,30.00,4.0,NNE,10.4,-,N/A,,Overcast,20,2014-05-08 04:53:00
11:29 PM,32.0,30.2,93,29.94,2.5,NNE,11.5,-,N/A,,Overcast,20,2014-05-08 05:29:00
11:46 PM,32.0,30.2,93,29.93,1.5,North,11.5,-,N/A,,Overcast,360,2014-05-08 05:46:00
11:53 PM,32.0,30.9,96,29.99,1.5,North,10.4,-,N/A,,Overcast,10,2014-05-08 05:53:00